MAX VALIER SAT (42778 NORAD) Tracking and Keplerian Element Data

This shows tracking and keplerian element data for the satellite.

Feedback or suggestion? Click here.




ElementValue
Catalog42778
NameMAX VALIER SAT
Epoch Orbit23673
Epoch Day269.89262481
Epoch Year2021
RAAN315.1445
Inclination97.2449
Eccentricity0.0012081
Argument of Perigee170.0292
Mean Anonmoly190.1188
Mean Motion15.23975051
Decay Rate3.061E-05
L11 42778U 17036P 21269.89262481 .00003061 00000-0 12910-3 0 9991
L22 42778 97.2449 315.1445 0012081 170.0292 190.1188 15.23975051236738

Live tracking and technical data element details for MAX VALIER SAT (NORAD 42778). MAX VALIER SAT can be tracked NOW for your location showing map with azimuth and elevation plus other details from your city location.

Track the satellite on the map from your city or location and see movement details for azimuth, elevation, latitude, longitude, range, height, and movement on the map or in text.







IsCatalogInMostPopularTable: catalog: 42778, numindb: 582
Update: records affected: 1



GetName: 42778 MAX VALIER SAT

Hit Count: updated at: Tue, 28 Sep 2021 17:36:48 GMT